DW3224 Weather Reports


time (UTC)temp
C
wind
direction
speed
KPH
gust
KPH
rain 1hr
cm
rain 24hr
cm
rain mn
cm
humidity
%
barometer
mb
20260504232005 14 0 0.0 0.0 0.00 0.00 0.00 80 1009.9
20260504231505 14 0 0.0 0.0 0.00 0.00 0.00 81 1009.9
20260504231006 14 0 0.0 0.0 0.00 0.00 0.00 81 1009.9
20260504230506 14 0 0.0 0.0 0.00 0.00 0.00 81 1009.9
20260504230005 14 0 0.0 0.0 0.00 0.00 0.00 81 1010.0
20260504225505 14 0 0.0 0.0 0.00 0.00 0.00 80 1010.1
20260504225006 14 0 0.0 0.0 0.00 0.00 0.00 80 1010.1
20260504224506 14 0 0.0 0.0 0.00 0.00 0.00 79 1010.2
20260504223505 15 0 0.0 0.0 0.00 0.00 0.00 79 1010.1
20260504223006 14 0 0.0 0.0 0.00 0.00 0.00 79 1010.1
20260504222506 14 0 0.0 0.0 0.00 0.00 0.00 79 1010.2
20260504222006 15 0 0.0 0.0 0.00 0.00 0.00 79 1010.3
20260504221506 15 0 0.0 0.0 0.00 0.00 0.00 78 1010.3
20260504221005 15 0 0.0 0.0 0.00 0.00 0.00 77 1010.4
20260504220005 15 0 0.0 0.0 0.00 0.00 0.00 76 1010.4
20260504215506 15 0 0.0 0.0 0.00 0.00 0.00 75 1010.3
20260504215006 15 0 0.0 0.0 0.00 0.00 0.00 75 1010.4
20260504214506 15 0 0.0 0.0 0.00 0.00 0.00 75 1010.3
20260504214006 15 0 0.0 0.0 0.00 0.00 0.00 75 1010.3
20260504213006 15 0 0.0 0.0 0.00 0.00 0.00 74 1010.4
20260504212506 15 0 0.0 0.0 0.00 0.00 0.00 74 1010.5
20260504212005 16 0 0.0 0.0 0.00 0.00 0.00 72 1010.6
20260504211505 16 0 0.0 0.0 0.00 0.00 0.00 71 1010.6
20260504211005 16 0 0.0 0.0 0.00 0.00 0.00 70 1010.5
20260504210506 16 0 0.0 0.0 0.00 0.00 0.00 67 1010.4
20260504210006 17 0 0.0 0.0 0.00 0.00 0.00 66 1010.4
20260504205505 17 0 0.0 0.0 0.00 0.00 0.00 65 1010.5
20260504205005 17 0 0.0 0.0 0.00 0.00 0.00 65 1010.4
20260504204506 17 0 0.0 0.0 0.00 0.00 0.00 65 1010.4
20260504204006 17 0 0.0 0.0 0.00 0.00 0.00 64 1010.4
20260504203006 17 0 0.0 0.0 0.00 0.00 0.00 65 1010.5
20260504202505 17 0 0.0 0.0 0.00 0.00 0.00 67 1010.5
20260504201506 17 0 0.0 0.0 0.00 0.00 0.00 67 1010.4
20260504201005 17 0 0.0 0.0 0.00 0.00 0.00 66 1010.4
20260504200505 17 0 0.0 0.0 0.00 0.00 0.00 66 1010.4
20260504200006 17 0 0.0 0.0 0.00 0.00 0.00 67 1010.4
20260504195005 17 0 0.0 0.0 0.00 0.00 0.00 65 1010.5
20260504194505 17 0 0.0 0.0 0.00 0.00 0.00 65 1010.4
20260504194006 16 0 0.0 0.0 0.00 0.00 0.00 67 1010.5
20260504193506 16 0 0.0 0.0 0.00 0.00 0.00 70 1010.5
20260504193006 16 0 0.0 0.0 0.00 0.00 0.00 69 1010.6
20260504192506 17 0 0.0 0.0 0.00 0.00 0.00 66 1010.6
20260504192006 16 0 0.0 0.0 0.00 0.00 0.00 70 1010.6
20260504191005 16 0 0.0 0.0 0.00 0.00 0.00 68 1010.6
20260504190006 17 0 0.0 0.0 0.00 0.00 0.00 65 1010.5
20260504185505 17 0 0.0 0.0 0.00 0.00 0.00 66 1010.6
20260504185005 16 0 0.0 0.0 0.00 0.00 0.00 66 1010.6
20260504184006 15 0 0.0 0.0 0.00 0.00 0.00 72 1010.4
20260504183506 15 0 0.0 0.0 0.00 0.00 0.00 72 1010.5
20260504183005 15 0 0.0 0.0 0.00 0.00 0.00 74 1010.6
20260504182505 15 0 0.0 0.0 0.00 0.00 0.00 74 1010.6
20260504182006 15 0 0.0 0.0 0.00 0.00 0.00 73 1010.7
20260504181505 15 0 0.0 0.0 0.00 0.00 0.00 72 1010.7
20260504181006 15 0 0.0 0.0 0.00 0.00 0.00 74 1010.7
20260504180506 14 0 0.0 0.0 0.00 0.00 0.00 76 1010.7
20260504180005 14 0 0.0 0.0 0.00 0.00 0.00 75 1010.8
20260504175505 14 0 0.0 0.0 0.00 0.00 0.00 75 1010.8
20260504175005 15 0 0.0 0.0 0.00 0.00 0.00 74 1010.7
20260504174505 15 0 0.0 0.0 0.00 0.00 0.00 75 1010.6
20260504173505 14 0 0.0 0.0 0.00 0.00 0.00 75 1010.7
20260504172505 14 0 0.0 0.0 0.00 0.00 0.00 77 1010.6
20260504172006 14 0 0.0 0.0 0.00 0.00 0.00 77 1010.6
20260504171506 14 0 0.0 0.0 0.00 0.00 0.00 77 1010.6
20260504171006 14 0 0.0 0.0 0.00 0.00 0.00 77 1010.5
20260504151006 14 0 0.0 0.0 0.00 0.00 0.00 71 1010.2
20260504150506 14 0 0.0 0.0 0.00 0.00 0.00 71 1010.3
20260504141005 15 0 0.0 0.0 0.00 0.00 0.00 67 1009.6
20260504140505 15 0 0.0 0.0 0.00 0.00 0.00 67 1009.7
20260504130505 15 0 0.0 0.0 0.00 0.00 0.00 64 1009.2
20260504100505 15 0 0.0 0.0 0.00 0.00 0.00 67 1009.3
20260504082005 16 0 0.0 0.0 0.00 0.00 0.00 58 1009.0
20260504081505 16 0 0.0 0.0 0.00 0.00 0.00 58 1009.0
20260504081005 16 0 0.0 0.0 0.00 0.00 0.00 58 1009.0
20260504080505 16 0 0.0 0.0 0.00 0.00 0.00 59 1009.1
20260504050505 20 0 0.0 0.0 0.00 0.00 0.00 42 1009.4
20260504050005 20 0 0.0 0.0 0.00 0.00 0.00 42 1009.4
20260504045505 20 0 0.0 0.0 0.00 0.00 0.00 42 1009.5
20260504044505 20 0 0.0 0.0 0.00 0.00 0.00 41 1009.4
20260504044005 20 0 0.0 0.0 0.00 0.00 0.00 42 1009.4
20260504043505 20 0 0.0 0.0 0.00 0.00 0.00 42 1009.4
20260504043005 20 0 0.0 0.0 0.00 0.00 0.00 43 1009.4
20260504041005 20 0 0.0 0.0 0.00 0.00 0.00 43 1009.4
20260504040505 20 0 0.0 0.0 0.00 0.00 0.00 44 1009.4
20260504040006 20 0 0.0 0.0 0.00 0.00 0.00 44 1009.4
20260504035505 20 0 0.0 0.0 0.00 0.00 0.00 44 1009.3
20260504035005 20 0 0.0 0.0 0.00 0.00 0.00 44 1009.3
20260504034505 20 0 0.0 0.0 0.00 0.00 0.00 43 1009.2
20260504034005 21 0 0.0 0.0 0.00 0.00 0.00 43 1009.2
20260504033505 21 0 0.0 0.0 0.00 0.00 0.00 42 1009.2
20260504032505 21 0 0.0 0.0 0.00 0.00 0.00 42 1009.1
20260504032005 22 0 0.0 0.0 0.00 0.00 0.00 41 1009.2
20260504031005 22 0 0.0 0.0 0.00 0.00 0.00 41 1009.2
20260504030505 22 0 0.0 0.0 0.00 0.00 0.00 41 1009.2
20260504030005 23 0 0.0 0.0 0.00 0.00 0.00 42 1009.3
20260504025505 23 0 0.0 0.0 0.00 0.00 0.00 43 1009.3
20260504025005 23 0 0.0 0.0 0.00 0.00 0.00 42 1009.3
20260504024505 23 0 0.0 0.0 0.00 0.00 0.00 42 1009.3
20260504024005 23 0 0.0 0.0 0.00 0.00 0.00 42 1009.3
20260504023505 23 0 0.0 0.0 0.00 0.00 0.00 42 1009.4
20260504023005 23 0 0.0 0.0 0.00 0.00 0.00 44 1009.5
20260504022506 23 0 0.0 0.0 0.00 0.00 0.00 44 1009.5
20260504022005 23 0 0.0 0.0 0.00 0.00 0.00 44 1009.6
20260504021506 22 0 0.0 0.0 0.00 0.00 0.00 43 1009.7
20260504021005 23 0 0.0 0.0 0.00 0.00 0.00 43 1009.8
20260504020505 22 0 0.0 0.0 0.00 0.00 0.00 44 1009.7
20260504020005 22 0 0.0 0.0 0.00 0.00 0.00 45 1009.7
20260504015505 22 0 0.0 0.0 0.00 0.00 0.00 45 1009.7
20260504015005 22 0 0.0 0.0 0.00 0.00 0.00 47 1009.8
20260504014505 21 0 0.0 0.0 0.00 0.00 0.00 48 1009.8
20260504014005 21 0 0.0 0.0 0.00 0.00 0.00 52 1009.8
20260504013005 21 0 0.0 0.0 0.00 0.00 0.00 47 1009.9
20260504012505 22 0 0.0 0.0 0.00 0.00 0.00 46 1010.0
20260504012005 22 0 0.0 0.0 0.00 0.00 0.00 45 1010.0
20260504011506 22 0 0.0 0.0 0.00 0.00 0.00 44 1010.0
20260504011005 22 0 0.0 0.0 0.00 0.00 0.00 43 1010.0
20260504010505 22 0 0.0 0.0 0.00 0.00 0.00 44 1010.0
20260504010005 22 0 0.0 0.0 0.00 0.00 0.00 44 1010.1
20260504005505 22 0 0.0 0.0 0.00 0.00 0.00 44 1010.1
20260504005005 22 0 0.0 0.0 0.00 0.00 0.00 45 1010.2
20260504004505 22 0 0.0 0.0 0.00 0.00 0.00 44 1010.4
20260504004005 22 0 0.0 0.0 0.00 0.00 0.00 45 1010.5
20260504003005 22 0 0.0 0.0 0.00 0.00 0.00 44 1010.5
20260504002506 22 0 0.0 0.0 0.00 0.00 0.00 46 1010.6
20260504002005 22 0 0.0 0.0 0.00 0.00 0.00 47 1010.7
20260504001505 22 0 0.0 0.0 0.00 0.00 0.00 49 1010.6
20260504001005 21 0 0.0 0.0 0.00 0.00 0.00 47 1010.7
20260504000505 22 0 0.0 0.0 0.00 0.00 0.00 47 1010.8
20260504000005 21 0 0.0 0.0 0.00 0.00 0.00 47 1010.8
20260503235505 21 0 0.0 0.0 0.00 0.00 0.00 48 1010.9
20260503235005 21 0 0.0 0.0 0.00 0.00 0.00 50 1010.9
20260503234505 21 0 0.0 0.0 0.00 0.00 0.00 51 1010.9
20260503234005 21 0 0.0 0.0 0.00 0.00 0.00 51 1010.9
20260503233505 21 0 0.0 0.0 0.00 0.00 0.00 52 1011.0
20260503233005 21 0 0.0 0.0 0.00 0.00 0.00 52 1011.0
20260503232505 21 0 0.0 0.0 0.00 0.00 0.00 53 1011.1